Weather History for KISP - July, 2013

Change the Weather History Date:

Tuesday, July 9, 2013

  Actual Average Record
Temperature  
Mean Temperature 78 °F 74 °F  
Max Temperature 86 °F 82 °F 95 °F (1993)
Min Temperature 70 °F 66 °F 55 °F (2009)
Degree Days  
Heating Degree Days 0 0  
Month to date heating degree days 0 0  
Since 1 June heating degree days 12 38  
Since 1 July heating degree days 0 0  
Cooling Degree Days 13 9  
Month to date cooling degree days 123 74  
Year to date cooling degree days 324 238  
Since 1 June cooling degree days 292 214  
Growing Degree Days 27 (Base 50)    
Moisture  
Dew Point 69 °F    
Average Humidity 73    
Maximum Humidity 90    
Minimum Humidity 55    
Precipitation  
Precipitation T in 0.11 in 0.57 in (1992)
Month to date precipitation 0.21 0.88  
Year to date precipitation 23.71 24.61  
Snow  
Snow 0.00 in 0.00 in - ()
Month to date snowfall 0.0 0.0  
Since 1 July snowfall 0.0 0.0  
Snow Depth 0.00 in    
Sea Level Pressure  
Sea Level Pressure 30.03 in    
Wind  
Wind Speed 7 mph (SSW)    
Max Wind Speed 10 mph    
Max Gust Speed 13 mph    
Visibility 10 miles    
Events Rain    
T = Trace of Precipitation, MM = Missing Value Source: NWS Daily Summary

Daily Weather History Graph

Daily Weather History Graph

Search for Another Location

Airport or City:

Trip Planner

Search our weather history database for the weather conditions in past years. The results will help you decide how hot, cold, wet, or windy it might be!

Date:

Astronomy

Jul. 09, 2013 Rise Set
Actual Time 5:29 AM EDT 8:25 PM EDT
Civil Twilight 4:56 AM EDT 8:58 PM EDT
Nautical Twilight 4:15 AM EDT 9:39 PM EDT
Astronomical Twilight 3:26 AM EDT 10:27 PM EDT
Moon 6:52 AM EDT (7/9) 9:00 PM EDT (7/9)
Length of Visible Light 16h 01m
Length of Day
14h 55m
New Moon, 2% of the Moon is Illuminated
Jul 9
New Moon
Jul 15
First Quarter
Jul 22
Full
Jul 29
Last Quarter
Aug 6
New

Hourly Weather History & Observations

Time (EDT) Temp. Heat Index Dew Point Humidity Pressure Visibility Wind Dir Wind Speed Gust Speed Precip Events Conditions
12:56 AM 73.9 °F - 66.9 °F 79% 30.02 in 10.0 mi SW 5.8 mph - N/A   Clear
1:56 AM 73.9 °F - 66.9 °F 79% 30.02 in 10.0 mi SSW 6.9 mph - N/A   Clear
2:56 AM 73.0 °F - 66.9 °F 81% 30.01 in 10.0 mi WSW 9.2 mph - N/A   Clear
3:56 AM 72.0 °F - 66.0 °F 81% 30.02 in 10.0 mi SW 4.6 mph - N/A   Partly Cloudy
4:56 AM 71.1 °F - 64.9 °F 81% 30.02 in 10.0 mi Calm Calm - N/A   Clear
5:56 AM 70.0 °F - 66.0 °F 87% 30.04 in 9.0 mi WSW 5.8 mph - N/A   Scattered Clouds
6:56 AM 73.9 °F - 68.0 °F 82% 30.05 in 10.0 mi WSW 5.8 mph - N/A   Scattered Clouds
7:56 AM 78.1 °F - 68.0 °F 71% 30.05 in 10.0 mi SW 3.5 mph - N/A   Scattered Clouds
8:56 AM 81.0 °F 84.1 °F 69.1 °F 67% 30.06 in 10.0 mi SSW 5.8 mph - N/A   Scattered Clouds
9:56 AM 82.9 °F 86.5 °F 69.1 °F 63% 30.05 in 10.0 mi SW 8.1 mph - N/A   Partly Cloudy
10:56 AM 84.0 °F 87.0 °F 68.0 °F 58% 30.06 in 10.0 mi SSW 8.1 mph - N/A   Scattered Clouds
11:56 AM 84.0 °F 86.3 °F 66.0 °F 55% 30.05 in 10.0 mi South 11.5 mph - N/A   Mostly Cloudy
12:56 PM 84.0 °F 87.8 °F 69.1 °F 61% 30.04 in 10.0 mi South 12.7 mph - N/A   Mostly Cloudy
1:56 PM 79.0 °F - 70.0 °F 74% 30.04 in 10.0 mi South 9.2 mph - 0.00 in Rain Light Rain
2:56 PM 82.9 °F 86.5 °F 69.1 °F 63% 30.03 in 10.0 mi South 9.2 mph - 0.00 in   Mostly Cloudy
3:56 PM 82.0 °F 86.3 °F 71.1 °F 69% 30.03 in 10.0 mi South 8.1 mph - N/A   Mostly Cloudy
4:56 PM 82.9 °F 87.0 °F 70.0 °F 65% 30.01 in 10.0 mi SSW 6.9 mph - N/A   Mostly Cloudy
5:56 PM 80.1 °F 82.9 °F 69.1 °F 69% 30.00 in 10.0 mi SW 9.2 mph - N/A   Mostly Cloudy
6:56 PM 79.0 °F - 70.0 °F 74% 30.00 in 10.0 mi SW 11.5 mph - N/A   Mostly Cloudy
7:56 PM 78.1 °F - 71.1 °F 79% 30.00 in 10.0 mi SW 9.2 mph - N/A   Mostly Cloudy
8:56 PM 77.0 °F - 71.1 °F 82% 30.00 in 10.0 mi SSW 4.6 mph - N/A   Mostly Cloudy
9:56 PM 75.9 °F - 71.1 °F 85% 30.01 in 10.0 mi SSW 5.8 mph - N/A   Mostly Cloudy
10:56 PM 75.9 °F - 70.0 °F 82% 30.02 in 10.0 mi SSW 4.6 mph - N/A   Mostly Cloudy
11:56 PM 75.0 °F - 71.1 °F 87% 30.02 in 10.0 mi SSW 9.2 mph - N/A   Mostly Cloudy